Regional Weather Roundup
Issued by NWS

Home | Current Version | Previous Version | Graphics & Text | Print | Product List | Glossary On
Versions: 1 2 3 4 5 6 7 8 9 10 11 12 13 14 15 16 17 18 19 20 21 22 23 24 25 26 27 28 29 30 31 32 33 34 35 36 37 38 39 40 41 42 43 44 45 46 47 48 49 50
164
ASUS45 KBOU 230007
RWRCO

WEATHER ROUNDUP FOR COLORADO
NATIONAL WEATHER SERVICE DENVER/BOULDER CO
600 PM MDT SUN OCT 22 2017

NOTE: "FAIR" INDICATES FEW OR NO CLOUDS BELOW 12000 FEET WITH NO
SIGNIFICANT WEATHER AND/OR OBSTRUCTIONS TO VISIBILITY.

COZ001>005-013-030-031-230100-
...NORTHWEST COLORADO...

CITY           SKY/WX    TMP DP  RH WIND       PRES   REMARKS
CRAIG          CLOUDY    56  28  34 W10       30.33R
HAYDEN         CLOUDY    55  29  36 W9        30.35S
MEEKER         FAIR      56  24  29 S8        30.36R
RABBIT EARS PA FAIR      32  28  86 W15G24    30.44R WCI  22
STEAMBOAT SPGS MOCLDY    52  30  43 W7        30.35R
WALDEN         NOT AVBL
$$

COZ006>008-011-230100-
...WEST CENTRAL VALLEYS...

CITY           SKY/WX    TMP DP  RH WIND       PRES   REMARKS
GRAND JUNCTION FAIR      59  20  22 NW10      30.35F
MONTROSE       FAIR      59  24  26 NW5       30.39R
EAGLE          FAIR      56  23  27 W14       30.38R
RIFLE          FAIR      59  25  27 SW8       30.36S
DELTA          FAIR      64  21  18 SW6       30.36S
NUCLA          FAIR      63  19  19 N5        30.43S
$$

COZ017>023-064>068-230100-
...SOUTHWEST COLORADO...

CITY           SKY/WX    TMP DP  RH WIND       PRES   REMARKS
DURANGO        FAIR      62  20  19 W17       30.36S
CORTEZ         FAIR      61  18  18 W16       30.38F
PAGOSA SPRINGS FAIR      57  14  18 CALM      30.44S
TELLURIDE      NOT AVBL
WOLF CREEK PAS FAIR      36  14  41 SW15G21   30.65S
$$

COZ009-010-012-014-032>034-037-058>063-230100-
...CENTRAL COLORADO...

CITY           SKY/WX    TMP DP  RH WIND       PRES   REMARKS
ASPEN          FAIR      50  26  39 NE3       30.41S
BUENA VISTA    FAIR      56  17  21 NW8G17    30.32S
COPPER MTN     FAIR      37  19  48 W10       30.55R
BERTHOUD PASS  FAIR      30  21  69 NW44G58   30.47R WCI  13
COTTONWOOD PAS FAIR      54  18  24 SW21G37   30.40F
GUNNISON       FAIR      55  16  21 W15G24    30.42R
KREMMLING      FAIR      55  23  28 W10G17    30.36R
LEADVILLE      FAIR      42  17  36 N7        30.45S
MONARCH PASS   FAIR      36  21  55 W49       30.61F
SALIDA         FAIR      58  22  24 W20G29    30.38S
SUNLIGHT       FAIR      34  21  60 SW15G25   30.55S WCI  24
WILKERSON PASS FAIR      43  16  33 W10G21    30.50R
$$

COZ069>075-230100-
...SAN LUIS VALLEY/SANGRE DE CRISTO MOUNTAINS...

CITY           SKY/WX    TMP DP  RH WIND       PRES   REMARKS
ALAMOSA        FAIR      55  18  23 S6        30.37R
DEL NORTE      FAIR      55  20  25 SE5       30.39R
LA VETA PASS   FAIR      45  19  36 SW28G40   30.54R
SAGUACHE       FAIR      55  21  26 N12       30.40R
$$

COZ035-036-038>040-230100-
...NORTHERN COLORADO FRONT RANGE...

CITY           SKY/WX    TMP DP  RH WIND       PRES   REMARKS
DENVER INTL AP MOCLDY    64  20  18 NW14      30.11R
DMNS CITY PARK   N/A     67  20  16 N9G18     30.10R
AURORA         MOCLDY    63  21  20 N6        30.12S
FRONT RANGE AP MOCLDY    63  23  22 W6        30.12S
ERIE MUNI ARPT FAIR      65  21  18 W12G24    30.14R
BOULDER MUN AP FAIR      64  23  20 NW12G23   30.09R
CENTENNIAL     MOCLDY    61  21  21 E6        30.13S
BROOMFIELD     MOCLDY    66  21  18 W23G31    30.11S
FORT COLLINS   FAIR      61  30  31 E8        30.09R
LONGMONT       FAIR      64  26  23 CALM      30.10R
$$

COZ041-046-047-076>085-087-088-230100-
...PIKES PEAK/PALMER DIVIDE AND SOUTHERN FOOTHILLS...

CITY           SKY/WX    TMP DP  RH WIND       PRES   REMARKS
COLO. SPRINGS  MOCLDY    64  26  23 E5        30.16S
A. F. ACADEMY  FAIR      61  24  24 S5        30.17S
SCHRIEVER AFB  FAIR      60  22  23 SE3       30.17S
CHEYENNE MTN   FAIR      60  22  23 S3        30.15R
ELLICOTT         N/A    N/A N/A N/A S3        30.16S
FALCON         FAIR      58  23  26 CALM      30.21F
FORT CARSON    FAIR      65  27  23 SE3       30.14R
LIMON          FAIR      56  28  34 N3        30.12R
MONUMENT HILL  FAIR      52  23  32 CALM      30.22S
CANON CITY     FAIR      72  27  18 W10G16    30.12R
WALSENBURG     FAIR      66  21  18 W20G26    30.18R
TRINIDAD       FAIR      62  28  27 S6        30.17R
$$

COZ042>045-048>051-090-091-230100-
...NORTHEAST COLORADO...

CITY           SKY/WX    TMP DP  RH WIND       PRES   REMARKS
GREELEY ARPT   FAIR      66  31  27 CALM      30.08R
AKRON          FAIR      58  27  30 W10       30.07R
BURLINGTON     FAIR      57  22  25 SW8       30.08R
WRAY           NOT AVBL
YUMA           FAIR      55  19  24 SW5       30.04S
STERLING       FAIR      61  30  31 SW7       30.02R
HOLYOKE        FAIR      61  28  29 SW5       30.03R
FORT MORGAN    FAIR      63  24  22 CALM      30.07S
$$

COZ086-089-092>099-230100-
...SOUTHEAST COLORADO...

CITY           SKY/WX    TMP DP  RH WIND       PRES   REMARKS
PUEBLO         FAIR      69  26  20 SE8       30.08R
LA JUNTA       FAIR      67  27  22 SE5       30.08F
LAMAR          FAIR      68  24  19 CALM      30.05F
SPRINGFIELD      N/A     57  29  34 S13       30.11S
$$




USA.gov is the U.S. government's official web portal to all federal, state and local government web resources and services.